Location: Unspecified
(0.0000°N, 0.0000°E)
Time: 13:49:20
(UTC+00:00)

Envisat - Pass Details

Date: 30 March 2020
Orbit: 764 x 766 km, 98.1° (Epoch: 02 April)

Event Time Altitude Azimuth Distance (km) Brightness Sun altitude
Rises 18:41:00 0° 185° (S) 3,231 6.3 -9.2°
Reaches altitude 10° 18:43:31 10° 195° (SSW) 2,302 5.6 -9.8°
Maximum altitude 18:48:01 33° 258° (WSW) 1,271 4.9 -10.9°
Drops below altitude 10° 18:52:31 10° 321° (NW) 2,292 6.1 -12.0°
Sets 18:55:01 0° 331° (NNW) 3,215 6.7 -12.7°
